UNISAT 3

Satellite information

Favourite Embed

Satellite Type and Status

PAYLOADIN ORBIT

Key statistics

Satellite UNISAT 3 at a glance.

Uptime

7618

Days in orbit

Revolutions

≈ 14.5

Per day

Orbit

SSO

Sun Synchronous Orbit

Inclination

98.7

Latest

Satellite identification and parameters

Extended collection of information and parameters for UNISAT 3.

Object identification

Identified? True

Debris? False

Object name: UNISAT 3

International designator: 2004-025H

Object number (NORAD): 28373

Object ID (CCSDS): 28373

Country: ITALY (IT)

Current information (Y/N): Y

RCS size: MEDIUM

Orbital parameters

Period: 99.414 minutes

Inclination: 98.6833 deg

SMA: 7108.721 km

Apoapsis: 777.984 km

Periapsis: 683.188 km

RAAN: 120.4645 deg

Eccentricy: 0.0066676

Argument of periapsis: 136.8815 deg

Mean anomaly: 223.7627 deg

Mean motion: 14.48490227 rev/day

Mean motion (dot): 0.00000775 rev/day2

B* drag term: 0.00021362 1/REarth

Two-line elements (TLE)

Creation date: May 8, 2025, 3:01 a.m.

Reference frame: TEME

Reference center: EARTH

Epoch: May 7, 2025, 1:08 p.m. UTC

TLE line 0: 0 UNISAT 3

TLE line 1: 1 28373U 04025H 25127.54764490 .00000775 00000-0 21362-3 0 9996

TLE line 2: 2 28373 98.6833 120.4645 0066676 136.8815 223.7627 14.48490227100312

Live tracking on map

Real-time ground track for satellite UNISAT 3.

In-orbit conjunctions

There are no conjunctions computed for UNISAT 3, at the moment. Check back to stay up to date, as we update our databases every day.

Go to all conjunctions

Associated space launch

AprizeSat, is a constellation of small Low-Earth-Orbit satellites (64 satellites planned) to achieve a global communication system of data transmission and fixed and mobile asset tracking and monitoring (GMPCS).

UNISAT 3 was lifted into orbit during the mission ‘Dnepr | Aprizesat-2’, on board a Dnepr space rocket.

The launch took place on June 29, 2004, 6:30 a.m. from 109/95.

For more information about the launch, click the button.

Launch to space Dnepr | Aprizesat-2
Dnepr | Aprizesat-2

Agency: N/A

Status: Launch Successful

Launch date: June 29, 2004, 6:30 a.m. UTC

Rocket: Dnepr

Launch pad: 109/95

Location: Baikonur Cosmodrome, Republic of Kazakhstan

...

Latest news about this satellite

There are no fresh news available about this satellite. Check back as we update our databases every day.


Newsletter sign-up

Weekly statistics, charts and insights to help you stay on top of the space industry.